Audubon, IA

8:15 PM CDT on October 20, 2017 (GMT -0500)
Audubon County

Weather History for KADU - March, 2013

Change the Weather History Date:

Monday, March 25, 2013

  Actual Average Record
Temperature  
Mean Temperature 28 °F -  
Max Temperature 32 °F 52 °F 79 °F (1991)
Min Temperature 24 °F 29 °F 3 °F (1955)
Degree Days  
Heating Degree Days 37    
Moisture  
Dew Point 23 °F    
Average Humidity 81    
Maximum Humidity 93    
Minimum Humidity 69    
Precipitation  
Precipitation 0.00 in - - ()
Sea Level Pressure  
Sea Level Pressure 30.14 in    
Wind  
Wind Speed 13 mph (NNW)    
Max Wind Speed 22 mph    
Max Gust Speed 26 mph    
Visibility 8 miles    
Events      
Averages and records for this station are not official NWS values.
T = Trace of Precipitation, MM = Missing Value Source: NWS Daily Summary

Daily Weather History Graph

Daily Weather History Graph

Search for Another Location

Airport or City:

Trip Planner

Search our weather history database for the weather conditions in past years. The results will help you decide how hot, cold, wet, or windy it might be!

Date:

Astronomy

Mar. 25, 2013 Rise Set
Actual Time 7:14 AM CDT 7:37 PM CDT
Civil Twilight 6:46 AM CDT 8:05 PM CDT
Nautical Twilight 6:13 AM CDT 8:38 PM CDT
Astronomical Twilight 5:39 AM CDT 9:12 PM CDT
Moon 6:09 PM CDT (3/25) 5:59 AM CDT (3/25)
Length of Visible Light 13h 19m
Length of Day
12h 23m
Waxing Gibbous, 96% of the Moon is Illuminated
Mar 25
Waxing Gibbous
Mar 27
Full
Apr 2
Last Quarter
Apr 10
New
Apr 18
First Quarter

Hourly Weather History & Observations

Time (CDT) Temp. Windchill Dew Point Humidity Pressure Visibility Wind Dir Wind Speed Gust Speed Precip Events Conditions
12:15 AM 28.4 °F 18.5 °F 24.8 °F 86% 30.01 in 2.5 mi NW 11.5 mph 16.1 mph N/A   Overcast
12:35 AM 28.4 °F 18.5 °F 24.8 °F 86% 30.01 in 3.0 mi NNW 11.5 mph 18.4 mph N/A   Overcast
12:55 AM 28.4 °F 18.5 °F 24.8 °F 86% 30.02 in 2.5 mi NNW 11.5 mph - N/A   Overcast
1:15 AM 28.4 °F 18.5 °F 24.8 °F 86% 30.02 in 3.0 mi NNW 11.5 mph 16.1 mph N/A   Overcast
1:35 AM 28.4 °F 18.0 °F 24.8 °F 86% 30.02 in 2.0 mi NNW 12.7 mph - N/A   Overcast
1:55 AM 28.4 °F 19.1 °F 24.8 °F 86% 30.02 in 1.2 mi NNW 10.4 mph - N/A   Overcast
2:15 AM 28.4 °F 18.5 °F 24.8 °F 86% 30.02 in 2.5 mi NNW 11.5 mph 16.1 mph N/A   Overcast
2:35 AM 26.6 °F 13.1 °F 24.8 °F 93% 30.02 in 2.0 mi NNW 19.6 mph 25.3 mph N/A   Overcast
2:55 AM 26.6 °F 15.7 °F 24.8 °F 93% 30.02 in 4.0 mi NNW 12.7 mph 24.2 mph N/A   Overcast
3:15 AM 26.6 °F 14.7 °F 23.0 °F 86% 30.02 in 7.0 mi NNW 15.0 mph 26.5 mph N/A   Scattered Clouds
3:35 AM 26.6 °F 14.7 °F 23.0 °F 86% 30.02 in 7.0 mi NNW 15.0 mph - N/A   Scattered Clouds
3:55 AM 26.6 °F 14.7 °F 23.0 °F 86% 30.02 in 7.0 mi NNW 15.0 mph 24.2 mph N/A   Mostly Cloudy
4:15 AM 24.8 °F 11.5 °F 21.2 °F 86% 30.02 in 4.0 mi NNW 17.3 mph 20.7 mph N/A   Mostly Cloudy
4:35 AM 24.8 °F 14.0 °F 21.2 °F 86% 30.03 in 5.0 mi NNW 11.5 mph 19.6 mph N/A   Scattered Clouds
4:55 AM 24.8 °F 12.9 °F 21.2 °F 86% 30.03 in 7.0 mi NNW 13.8 mph 20.7 mph N/A   Overcast
5:15 AM 24.8 °F 12.4 °F 21.2 °F 86% 30.03 in 5.0 mi NNW 15.0 mph 19.6 mph N/A   Overcast
5:35 AM 24.8 °F 13.4 °F 21.2 °F 86% 30.04 in 3.0 mi NW 12.7 mph 21.9 mph N/A   Overcast
5:55 AM 24.8 °F 11.9 °F 21.2 °F 86% 30.05 in 3.0 mi NW 16.1 mph 19.6 mph N/A   Overcast
6:15 AM 24.8 °F 12.4 °F 21.2 °F 86% 30.05 in 4.0 mi NW 15.0 mph - N/A   Overcast
6:35 AM 24.8 °F 13.4 °F 21.2 °F 86% 30.05 in 5.0 mi NW 12.7 mph 21.9 mph N/A   Overcast
6:55 AM 24.8 °F 12.9 °F 21.2 °F 86% 30.06 in 7.0 mi NW 13.8 mph 20.7 mph N/A   Overcast
7:15 AM 24.8 °F 12.4 °F 21.2 °F 86% 30.07 in 4.0 mi NNW 15.0 mph 20.7 mph N/A   Overcast
7:35 AM 24.8 °F 12.9 °F 21.2 °F 86% 30.08 in 2.0 mi NW 13.8 mph 19.6 mph N/A   Overcast
7:55 AM 24.8 °F 13.4 °F 21.2 °F 86% 30.08 in 2.0 mi NW 12.7 mph 20.7 mph N/A   Overcast
8:15 AM 24.8 °F 12.9 °F 21.2 °F 86% 30.09 in 3.0 mi NW 13.8 mph 18.4 mph N/A   Mostly Cloudy
8:35 AM 24.8 °F 12.4 °F 21.2 °F 86% 30.10 in 3.0 mi NW 15.0 mph 20.7 mph N/A   Scattered Clouds
8:55 AM 24.8 °F 12.9 °F 21.2 °F 86% 30.10 in 4.0 mi NW 13.8 mph 21.9 mph N/A   Scattered Clouds
9:15 AM 26.6 °F 15.7 °F 21.2 °F 80% 30.11 in 10.0 mi NNW 12.7 mph 19.6 mph N/A   Clear
9:35 AM 26.6 °F 15.2 °F 23.0 °F 86% 30.12 in 10.0 mi NNW 13.8 mph - N/A   Scattered Clouds
9:55 AM 26.6 °F 14.3 °F 23.0 °F 86% 30.12 in 10.0 mi NNW 16.1 mph 20.7 mph N/A   Mostly Cloudy
10:15 AM 28.4 °F 17.5 °F 24.8 °F 86% 30.13 in 10.0 mi NNW 13.8 mph 19.6 mph N/A   Scattered Clouds
10:35 AM 28.4 °F 15.8 °F 24.8 °F 86% 30.14 in 10.0 mi NNW 18.4 mph 23.0 mph N/A   Scattered Clouds
10:55 AM 28.4 °F 16.6 °F 24.8 °F 86% 30.14 in 10.0 mi NNW 16.1 mph 21.9 mph N/A   Scattered Clouds
11:15 AM 28.4 °F 15.8 °F 24.8 °F 86% 30.15 in 10.0 mi NNW 18.4 mph 25.3 mph N/A   Scattered Clouds
11:35 AM 28.4 °F 14.7 °F 23.0 °F 80% 30.16 in 10.0 mi NNW 21.9 mph - N/A   Scattered Clouds
11:55 AM 28.4 °F 15.1 °F 23.0 °F 80% 30.16 in 10.0 mi North 20.7 mph 24.2 mph N/A   Scattered Clouds
12:15 PM 30.2 °F 18.5 °F 23.0 °F 75% 30.17 in 10.0 mi North 17.3 mph 24.2 mph N/A   Scattered Clouds
12:35 PM 30.2 °F 19.3 °F 23.0 °F 75% 30.17 in 10.0 mi North 15.0 mph - N/A   Clear
12:55 PM 30.2 °F 18.5 °F 24.8 °F 80% 30.17 in 10.0 mi NNW 17.3 mph - N/A   Scattered Clouds
1:15 PM 30.2 °F 18.5 °F 23.0 °F 75% 30.17 in 10.0 mi NNW 17.3 mph 23.0 mph N/A   Scattered Clouds
1:35 PM 30.2 °F 18.1 °F 24.8 °F 80% 30.17 in 10.0 mi NNW 18.4 mph 24.2 mph N/A   Scattered Clouds
1:55 PM 32.0 °F 20.5 °F 24.8 °F 75% 30.17 in 10.0 mi NNW 18.4 mph 24.2 mph N/A   Scattered Clouds
2:15 PM 32.0 °F 21.6 °F 24.8 °F 75% 30.17 in 10.0 mi NNW 15.0 mph 25.3 mph N/A   Scattered Clouds
2:35 PM 32.0 °F 20.8 °F 24.8 °F 75% 30.17 in 10.0 mi NNW 17.3 mph 24.2 mph N/A   Scattered Clouds
2:55 PM 32.0 °F 21.6 °F 23.0 °F 69% 30.18 in 10.0 mi NNW 15.0 mph - N/A   Mostly Cloudy
3:15 PM 32.0 °F 21.2 °F 24.8 °F 75% 30.18 in 10.0 mi North 16.1 mph 19.6 mph N/A   Mostly Cloudy
3:35 PM 32.0 °F 21.2 °F 24.8 °F 75% 30.18 in 10.0 mi NNW 16.1 mph 20.7 mph N/A   Mostly Cloudy
3:55 PM 32.0 °F 21.6 °F 24.8 °F 75% 30.18 in 10.0 mi NNW 15.0 mph 20.7 mph N/A   Mostly Cloudy
4:15 PM 32.0 °F 21.6 °F 23.0 °F 69% 30.19 in 10.0 mi NNW 15.0 mph 23.0 mph N/A   Mostly Cloudy
4:35 PM 32.0 °F 22.1 °F 23.0 °F 69% 30.19 in 10.0 mi NNW 13.8 mph - N/A   Mostly Cloudy
4:55 PM 32.0 °F 22.1 °F 24.8 °F 75% 30.19 in 10.0 mi NNW 13.8 mph 20.7 mph N/A   Overcast
5:15 PM 32.0 °F 23.0 °F 23.0 °F 69% 30.20 in 10.0 mi NW 11.5 mph 20.7 mph N/A   Mostly Cloudy
5:35 PM 32.0 °F 22.1 °F 24.8 °F 75% 30.20 in 10.0 mi NW 13.8 mph 17.3 mph N/A   Mostly Cloudy
5:55 PM 32.0 °F 22.5 °F 24.8 °F 75% 30.21 in 10.0 mi NW 12.7 mph 19.6 mph N/A   Mostly Cloudy
6:15 PM 32.0 °F 23.6 °F 24.8 °F 75% 30.21 in 10.0 mi NW 10.4 mph 18.4 mph N/A   Mostly Cloudy
6:35 PM 30.2 °F 21.9 °F 24.8 °F 80% 30.22 in 10.0 mi NW 9.2 mph 18.4 mph N/A   Overcast
6:55 PM 30.2 °F 20.8 °F 23.0 °F 75% 30.22 in 10.0 mi NW 11.5 mph 18.4 mph N/A   Overcast
7:15 PM 30.2 °F 21.3 °F 23.0 °F 75% 30.23 in 10.0 mi NW 10.4 mph - N/A   Overcast
7:35 PM 30.2 °F 21.9 °F 23.0 °F 75% 30.24 in 10.0 mi NW 9.2 mph - N/A   Overcast
7:55 PM 28.4 °F 19.7 °F 23.0 °F 80% 30.24 in 10.0 mi NW 9.2 mph - N/A   Overcast
8:15 PM 28.4 °F 19.1 °F 24.8 °F 86% 30.25 in 10.0 mi NW 10.4 mph 17.3 mph N/A   Overcast
8:35 PM 28.4 °F 19.7 °F 23.0 °F 80% 30.25 in 10.0 mi NW 9.2 mph - N/A   Overcast
8:55 PM 28.4 °F 19.7 °F 23.0 °F 80% 30.25 in 10.0 mi NW 9.2 mph 16.1 mph N/A   Overcast
9:15 PM 28.4 °F 19.7 °F 23.0 °F 80% 30.26 in 10.0 mi NW 9.2 mph - N/A   Overcast
9:35 PM 28.4 °F 19.7 °F 23.0 °F 80% 30.27 in 10.0 mi NW 9.2 mph - N/A   Overcast
9:55 PM 28.4 °F 20.4 °F 23.0 °F 80% 30.27 in 10.0 mi NW 8.1 mph - N/A   Overcast
10:15 PM 28.4 °F 19.1 °F 23.0 °F 80% 30.27 in 10.0 mi NW 10.4 mph - N/A   Overcast
10:35 PM 28.4 °F 19.7 °F 23.0 °F 80% 30.27 in 10.0 mi NW 9.2 mph - N/A   Overcast
10:55 PM 28.4 °F 19.7 °F 23.0 °F 80% 30.28 in 10.0 mi NW 9.2 mph - N/A   Overcast
11:15 PM 28.4 °F 19.1 °F 23.0 °F 80% 30.28 in 10.0 mi NW 10.4 mph - N/A   Overcast
11:35 PM 28.4 °F 19.1 °F 24.8 °F 86% 30.29 in 10.0 mi NW 10.4 mph - N/A   Overcast
11:55 PM 28.4 °F 20.4 °F 24.8 °F 86% 30.29 in 10.0 mi NW 8.1 mph - N/A   Overcast